Regional Weather Roundup
Issued by NWS

Home | Current Version | Previous Version | Text Only | Print | Product List | Glossary Off
Versions: 1 2 3 4 5 6 7 8 9 10 11 12 13 14 15 16 17 18 19 20 21 22 23 24 25 26 27 28 29 30 31 32 33 34 35 36 37 38 39 40 41 42 43 44 45 46 47 48 49 50

152
ASUS43 KLMK 091010
RWRKY
KENTUCKY REGIONAL WEATHER ROUNDUP
NATIONAL WEATHER SERVICE LOUISVILLE KY
500 AM EST TUE FEB 09 2016

NOTE "FAIR" INDICATES FEW OR NO CLOUDS BELOW 12,000 FEET
WITH NO SIGNIFICANT WEATHER AND/OR OBSTRUCTIONS TO VISIBILITY.

KYZ001>023-026-027-061>063-070>075-091100-
WESTERN AND SOUTH CENTRAL KENTUCKY

CITY           SKY/WX    TMP DP  RH WIND       PRES   REMARKS
PADUCAH        LGT SNOW  25  19  78 NW8       29.88S WCI  16
HENDERSON      CLOUDY    21  12  68 W14       29.86S WCI   8
OWENSBORO      FLURRIES  21  15  78 W14       29.85S WCI   8
HOPKINSVILLE   FLURRIES  24  15  69 NW10      29.85S WCI  14
BOWLING GREEN  CLOUDY    23  17  78 W9        29.85S WCI  13
GLASGOW        CLOUDY    21  16  79 W6        29.83R WCI  14
$$

KYZ024-025-028>034-038-045-046-053-091100-
NORTH CENTRAL KENTUCKY

CITY           SKY/WX    TMP DP  RH WIND       PRES   REMARKS
LOUISVILLE/SDF CLOUDY    22  14  71 W12       29.80S WCI  10
LOUISVILLE/LOU CLOUDY    22  14  71 W14       29.80S WCI   9
FORT KNOX      LGT SNOW  21  16  79 W9        29.78R WCI  11
$$

KYZ035>037-039>044-047>052-055>060-089>105-091100-
NORTHEAST KENTUCKY

CITY           SKY/WX    TMP DP  RH WIND       PRES   REMARKS
LEXINGTON      CLOUDY    20  13  74 W10       29.76R WCI   9
COVINGTON      LGT SNOW  21  16  81 W7        29.71S WCI  12
FRANKFORT      LGT SNOW  20  15  81 W6        29.76R WCI  12
$$

KYZ054-064>069-076>088-106>120-091100-
SOUTHEAST KENTUCKY

CITY           SKY/WX    TMP DP  RH WIND       PRES   REMARKS
JACKSON        FLURRIES  22  15  75 VRB7G20   29.70R WCI  13
LONDON         LGT SNOW  22  17  81 W8        29.75R WCI  12
SOMERSET       CLOUDY    21  16  79 W12       29.81R WCI   9
MIDDLESBORO    FLURRIES  24  19  80 NW7       29.76R WCI  16
MONTICELLO     FLURRIES  22  16  78 W14G21    29.81R WCI   9
$$





USA.gov is the U.S. government's official web portal to all federal, state and local government web resources and services.